Tracking 31027 objects as of 19-Jul-2025
HD Live streaming from Space Station
objects crossing your sky now

DMSP 5D-2 F13 DEB

Track DMSP 5D-2 F13 DEB now!
10-day predictions


NORAD ID: 40517
Int'l Code: 1995-015DD
Perigee: 725.0 km
Apogee: 755.6 km
Inclination: 98.6 °
Period: 99.5 minutes
Semi major axis: 7111 km
RCS: Unknown
Launch date: March 24, 1995
Source: United States (US)
Launch site: AIR FORCE WESTERN TEST RANGE (AFWTR)

Note: This is SATELLITE DEBRIS
Your satellite tracking list
COSMOS 1656
Track 1 satellite(s)




NASA's NSSDC Master Catalog

Two Line Element Set (TLE):
1 40517U 95015DD  25197.82908687  .00004884  00000-0  13312-2 0  9995
2 40517  98.6026 238.7197 0021458  74.2959 286.0598 14.47702994537542
Source of the keplerian elements: AFSPC